Weather History for New River MCAS, NC

Change the Weather History Date:

Thursday, March 15, 2012

  Actual Average Record
Temperature  
Mean Temperature 68 °F -  
Max Temperature 82 °F 63 °F 82 °F (2012)
Min Temperature 53 °F 41 °F 23 °F (2005)
Cooling Degree Days 2    
Growing Degree Days 18 (Base 50)    
Moisture  
Dew Point 57 °F    
Average Humidity 78    
Maximum Humidity 100    
Minimum Humidity 42    
Precipitation  
Precipitation 0.01 in - - ()
Sea Level Pressure  
Sea Level Pressure 30.27 in    
Wind  
Wind Speed 3 mph (SSE)    
Max Wind Speed 15 mph    
Max Gust Speed 21 mph    
Visibility 8 miles    
Events      
Averages and records for this station are not official NWS values.
T = Trace of Precipitation, MM = Missing Value Source: NWS Daily Summary

Daily Weather History Graph

Daily Weather History Graph

Search for Another Location

Airport:

Trip Planner

Search our weather history database for the weather conditions in past years. The results will help you decide how hot, cold, wet, or windy it might be!

Date:

Astronomy

Mar. 15, 2012 Rise Set
Actual Time 7:19 AM EDT 7:17 PM EDT
Civil Twilight 6:54 AM EDT 7:42 PM EDT
Nautical Twilight 6:25 AM EDT 8:12 PM EDT
Astronomical Twilight 5:55 AM EDT 8:41 PM EDT
Moon 2:31 AM EDT (3/15) 12:46 PM EDT (3/15)
Length of Visible Light 12h 48m
Length of Day
11h 58m
Last Quarter, 43% of the Moon is Illuminated
Mar 15
Last Quarter
Mar 22
New
Mar 30
First Quarter
Apr 6
Full
Apr 13
Last Quarter

Hourly Weather History & Observations

Time (EDT) Temp. Heat Index Dew Point Humidity Pressure Visibility Wind Dir Wind Speed Gust Speed Precip Events Conditions
12:56 AM 57.9 °F - 57.0 °F 97% 30.26 in 9.0 mi Calm Calm - N/A   Clear
1:56 AM 60.1 °F - 57.9 °F 93% 30.26 in 10.0 mi Calm Calm - N/A   Clear
2:56 AM 57.0 °F - 55.9 °F 96% 30.25 in 8.0 mi Calm Calm - N/A   Clear
3:56 AM 57.0 °F - 55.9 °F 96% 30.24 in 8.0 mi Calm Calm - N/A   Clear
4:56 AM 55.9 °F - 54.0 °F 93% 30.25 in 7.0 mi Calm Calm - N/A   Clear
5:56 AM 57.0 °F - 55.9 °F 96% 30.27 in 5.0 mi Calm Calm - N/A   Clear
6:56 AM 54.0 °F - 53.1 °F 97% 30.28 in 5.0 mi Calm Calm - N/A   Clear
7:04 AM 53.6 °F - 51.8 °F 94% 30.28 in 1.8 mi South 3.5 mph - N/A   Clear
7:15 AM 53.6 °F - 53.6 °F 100% 30.28 in 4.0 mi Calm Calm - N/A   Clear
7:56 AM 54.0 °F - 53.1 °F 97% 30.29 in 4.0 mi Calm Calm - 0.01 in   Clear
8:05 AM 53.6 °F - 53.6 °F 100% 30.29 in 1.8 mi Calm Calm - N/A   Clear
8:14 AM 55.4 °F - 55.4 °F 100% 30.29 in 5.0 mi Calm Calm - N/A   Clear
8:56 AM 61.0 °F - 59.0 °F 93% 30.31 in 7.0 mi Calm Calm - N/A   Clear
9:56 AM 68.0 °F - 61.0 °F 78% 30.31 in 10.0 mi SSE 3.5 mph - N/A   Clear
10:56 AM 73.0 °F - 61.0 °F 66% 30.31 in 10.0 mi Calm Calm - N/A   Clear
11:56 AM 75.0 °F - 61.0 °F 62% 30.31 in 9.0 mi ESE 5.8 mph - N/A   Partly Cloudy
12:27 PM 77.0 °F - 60.8 °F 57% 30.29 in 10.0 mi East 5.8 mph - N/A   Mostly Cloudy
12:48 PM 77.0 °F - 59.0 °F 54% 30.29 in 10.0 mi East 6.9 mph - N/A   Scattered Clouds
12:56 PM 78.1 °F - 59.0 °F 52% 30.30 in 9.0 mi East 5.8 mph - N/A   Scattered Clouds
1:56 PM 82.0 °F 82.0 °F 57.9 °F 44% 30.28 in 10.0 mi South 13.8 mph - N/A   Mostly Cloudy
2:56 PM 80.1 °F 80.1 °F 55.0 °F 42% 30.25 in 10.0 mi SSE 15.0 mph - N/A   Mostly Cloudy
3:56 PM 78.1 °F - 55.9 °F 46% 30.24 in 10.0 mi South 11.5 mph 20.7 mph N/A   Clear
4:56 PM 75.0 °F - 57.0 °F 53% 30.23 in 10.0 mi South 12.7 mph - N/A   Clear
5:56 PM 73.9 °F - 55.9 °F 53% 30.23 in 10.0 mi SSW 11.5 mph - N/A   Clear
6:56 PM 70.0 °F - 55.9 °F 61% 30.24 in 10.0 mi South 9.2 mph - N/A   Clear
7:56 PM 66.0 °F - 55.9 °F 70% 30.25 in 10.0 mi South 6.9 mph - N/A   Clear
8:56 PM 64.0 °F - 57.9 °F 80% 30.25 in 10.0 mi South 6.9 mph - N/A   Clear
9:56 PM 63.0 °F - 59.0 °F 87% 30.25 in 10.0 mi SSW 4.6 mph - N/A   Clear
10:56 PM 62.1 °F - 59.0 °F 90% 30.26 in 10.0 mi South 5.8 mph - N/A   Clear
11:56 PM 62.1 °F - 60.1 °F 93% 30.27 in 10.0 mi Calm Calm - N/A   Clear